Tracking 19846 objects as of 18-Sep-2019
HD Live streaming from Space Station
objects crossing your sky now

FENGYUN 1C DEB

Track FENGYUN 1C DEB now!
10-day predictions


NORAD ID: 31097
Int'l Code: 1999-025BGT
Perigee: 821.0 km
Apogee: 848.9 km
Inclination: 98.9 °
Period: 101.5 minutes
Semi major axis: 7205 km
RCS: 0.0109 m2 (small)
Launch date: May 10, 1999
Source: People's Republic of China (PRC)
Launch site: Taiyaun Space Center, China (TSC)

Note: This is SATELLITE DEBRIS
aabbcc
Your satellite tracking list
Your tracking list is empty




NASA's NSSDC Master Catalog

Two Line Element Set (TLE):
1 31097U 99025BGT 19259.15320360 +.00000779 +00000-0 +39237-3 0  9991
2 31097 098.9162 319.4798 0019369 061.4467 353.4229 14.19272915645389
Source of the keplerian elements: AFSPC